Weather History for Mineola, TX

Change the Weather History Date:

Tuesday, May 7, 2013

  Actual Average (KTYR) Record (KTYR)
Temperature  
Mean Temperature 66 °F 71 °F  
Max Temperature 82 °F 81 °F 94 °F (1984)
Min Temperature 51 °F 61 °F 44 °F (1931)
Degree Days  
Heating Degree Days 0 0  
Month to date heating degree days 6  
Since 1 July heating degree days 2268  
Cooling Degree Days 2 6  
Month to date cooling degree days 39  
Year to date cooling degree days 151  
Growing Degree Days 16 (Base 50)    
Moisture  
Dew Point 53 °F    
Average Humidity 66    
Maximum Humidity 100    
Minimum Humidity 34    
Precipitation  
Precipitation 0.00 in 0.16 in 1.60 in (1907)
Month to date precipitation 1.08  
Year to date precipitation 15.24  
Snow  
Snow 0.00 in - - ()
Month to date snowfall  
Since 1 July snowfall  
Snow Depth -    
Sea Level Pressure  
Sea Level Pressure 30.03 in    
Wind  
Wind Speed 1 mph (SE)    
Max Wind Speed 6 mph    
Max Gust Speed -    
Visibility 9 miles    
Events      
T = Trace of Precipitation, MM = Missing Value Source: NWS Daily Summary

Daily Weather History Graph

Daily Weather History Graph

Search for Another Location

Airport:

Trip Planner

Search our weather history database for the weather conditions in past years. The results will help you decide how hot, cold, wet, or windy it might be!

Date:

Astronomy

May. 07, 2013 Rise Set
Actual Time 6:29 AM CDT 8:08 PM CDT
Civil Twilight 6:02 AM CDT 8:35 PM CDT
Nautical Twilight 5:30 AM CDT 9:07 PM CDT
Astronomical Twilight 4:56 AM CDT 9:40 PM CDT
Moon 4:56 AM CDT (5/7) 6:14 PM CDT (5/7)
Length of Visible Light 14h 32m
Length of Day
13h 39m
Waning Crescent, 5% of the Moon is Illuminated
May 7
Waning Crescent
May 9
New
May 17
First Quarter
May 24
Full
May 31
Last Quarter

Hourly Weather History & Observations

Time (CDT) Temp. Heat Index Dew Point Humidity Pressure Visibility Wind Dir Wind Speed Gust Speed Precip Events Conditions
12:15 AM 57.2 °F - 53.6 °F 88% 30.03 in 10.0 mi Calm Calm - N/A   Clear
12:35 AM 55.4 °F - 51.8 °F 88% 30.04 in 10.0 mi Calm Calm - N/A   Clear
12:55 AM 55.4 °F - 51.8 °F 88% 30.04 in 10.0 mi Calm Calm - N/A   Clear
1:15 AM 55.4 °F - 51.8 °F 88% 30.04 in 10.0 mi Calm Calm - N/A   Clear
1:35 AM 55.4 °F - 51.8 °F 88% 30.05 in 10.0 mi Calm Calm - N/A   Clear
1:55 AM 53.6 °F - 51.8 °F 94% 30.04 in 10.0 mi Calm Calm - N/A   Clear
2:15 AM 53.6 °F - 51.8 °F 94% 30.03 in 10.0 mi Calm Calm - N/A   Clear
2:35 AM 53.6 °F - 51.8 °F 94% 30.04 in 10.0 mi Calm Calm - N/A   Clear
2:55 AM 53.6 °F - 51.8 °F 94% 30.03 in 10.0 mi Calm Calm - N/A   Clear
3:15 AM 53.6 °F - 51.8 °F 94% 30.02 in 10.0 mi Calm Calm - N/A   Clear
3:35 AM 53.6 °F - 51.8 °F 94% 30.04 in 10.0 mi Calm Calm - N/A   Clear
3:55 AM 53.6 °F - 51.8 °F 94% 30.04 in 10.0 mi Calm Calm - N/A   Clear
4:15 AM 53.6 °F - 51.8 °F 94% 30.04 in 10.0 mi Calm Calm - N/A   Clear
4:35 AM 53.6 °F - 51.8 °F 94% 30.04 in 10.0 mi Calm Calm - N/A   Clear
4:55 AM 53.6 °F - 51.8 °F 94% 30.04 in 10.0 mi Calm Calm - N/A   Clear
5:15 AM 53.6 °F - 53.6 °F 100% 30.04 in 10.0 mi Calm Calm - N/A   Clear
5:35 AM 53.6 °F - 53.6 °F 100% 30.05 in 10.0 mi Calm Calm - N/A   Clear
5:55 AM 53.6 °F - 51.8 °F 94% 30.05 in 10.0 mi Calm Calm - N/A   Clear
6:15 AM 51.8 °F - 51.8 °F 100% 30.05 in 10.0 mi Calm Calm - N/A   Clear
6:35 AM 51.8 °F - 51.8 °F 100% 30.06 in 10.0 mi Calm Calm - N/A   Clear
6:55 AM 51.8 °F - 50.0 °F 94% 30.07 in 10.0 mi Calm Calm - N/A   Clear
7:15 AM 51.8 °F - 51.8 °F 100% 30.08 in 10.0 mi Calm Calm - N/A   Clear
7:35 AM 53.6 °F - 51.8 °F 94% 30.08 in 10.0 mi Calm Calm - N/A   Clear
7:55 AM 55.4 °F - 53.6 °F 94% 30.07 in 10.0 mi Calm Calm - N/A   Clear
8:15 AM 60.8 °F - 55.4 °F 82% 30.08 in 10.0 mi Calm Calm - N/A   Clear
8:35 AM 62.6 °F - 55.4 °F 77% 30.08 in 10.0 mi Calm Calm - N/A   Clear
8:55 AM 66.2 °F - 57.2 °F 73% 30.08 in 10.0 mi Calm Calm - N/A   Clear
9:15 AM 68.0 °F - 57.2 °F 68% 30.08 in 10.0 mi Calm Calm - N/A   Clear
9:35 AM 69.8 °F - 55.4 °F 60% 30.09 in 10.0 mi SSE 3.5 mph - N/A   Clear
9:55 AM 71.6 °F - 55.4 °F 57% 30.09 in 10.0 mi SE 4.6 mph - N/A   Clear
10:15 AM 71.6 °F - 55.4 °F 57% 30.09 in 10.0 mi ESE 3.5 mph - N/A   Clear
10:35 AM 73.4 °F - 53.6 °F 50% 30.09 in 10.0 mi SSE 4.6 mph - N/A   Clear
10:55 AM 73.4 °F - 53.6 °F 50% 30.09 in 10.0 mi Calm Calm - N/A   Clear
11:15 AM 73.4 °F - 55.4 °F 53% 30.09 in 10.0 mi Calm Calm - N/A   Clear
11:35 AM 75.2 °F - 51.8 °F 44% 30.09 in 10.0 mi West 3.5 mph - N/A   Clear
11:55 AM 77.0 °F - 51.8 °F 41% 30.09 in 10.0 mi NW 4.6 mph - N/A   Clear
12:15 PM 77.0 °F - 51.8 °F 41% 30.08 in 10.0 mi Calm Calm - N/A   Clear
12:35 PM 78.8 °F - 51.8 °F 39% 30.07 in 10.0 mi Calm Calm - N/A   Clear
12:55 PM 78.8 °F - 51.8 °F 39% 30.07 in 10.0 mi North 3.5 mph - N/A   Clear
1:15 PM 78.8 °F - 51.8 °F 39% 30.06 in 10.0 mi Calm Calm - N/A   Clear
1:35 PM 78.8 °F - 51.8 °F 39% 30.05 in 10.0 mi NW 5.8 mph - N/A   Clear
1:55 PM 80.6 °F - 51.8 °F 37% 30.04 in 10.0 mi NNW 5.8 mph - N/A   Clear
2:15 PM 80.6 °F - 51.8 °F 37% 30.04 in 10.0 mi NNW 4.6 mph - N/A   Clear
2:35 PM 80.6 °F - 51.8 °F 37% 30.03 in 9.0 mi North 5.8 mph - N/A   Clear
2:55 PM 80.6 °F - 51.8 °F 37% 30.03 in 10.0 mi Calm Calm - N/A   Clear
3:15 PM 80.6 °F - 51.8 °F 37% 30.02 in 8.0 mi SSW 3.5 mph - N/A   Scattered Clouds
3:35 PM 80.6 °F - 51.8 °F 37% 30.01 in 1.2 mi SE 3.5 mph - N/A   Haze
3:55 PM 80.6 °F - 51.8 °F 37% 30.00 in 3.0 mi Calm Calm - N/A   Haze
4:15 PM 82.4 °F 81.4 °F 53.6 °F 37% 29.99 in 2.0 mi SE 4.6 mph - N/A   Haze
4:35 PM 80.6 °F - 51.8 °F 37% 29.99 in 1.8 mi Calm Calm - N/A   Haze
4:55 PM 80.6 °F - 51.8 °F 37% 29.99 in 2.5 mi Calm Calm - N/A   Haze
5:15 PM 80.6 °F - 51.8 °F 37% 29.98 in 4.0 mi ESE 3.5 mph - N/A   Haze
5:35 PM 80.6 °F - 51.8 °F 37% 29.98 in 10.0 mi Calm Calm - N/A   Clear
5:55 PM 80.6 °F - 51.8 °F 37% 29.98 in 10.0 mi Calm Calm - N/A   Clear
6:15 PM 80.6 °F - 50.0 °F 34% 29.97 in 10.0 mi Calm Calm - N/A   Clear
6:35 PM 80.6 °F - 50.0 °F 34% 29.97 in 10.0 mi Calm Calm - N/A   Clear
6:55 PM 80.6 °F - 50.0 °F 34% 29.97 in 10.0 mi Calm Calm - N/A   Clear
7:15 PM 78.8 °F - 51.8 °F 39% 29.97 in 10.0 mi Calm Calm - N/A   Clear
7:35 PM 75.2 °F - 57.2 °F 53% 29.97 in 10.0 mi Calm Calm - N/A   Clear
7:55 PM 73.4 °F - 57.2 °F 57% 29.97 in 10.0 mi Calm Calm - N/A   Clear
8:15 PM 71.6 °F - 55.4 °F 57% 29.98 in 10.0 mi Calm Calm - N/A   Clear
8:35 PM 69.8 °F - 57.2 °F 64% 29.99 in 10.0 mi Calm Calm - N/A   Clear
8:55 PM 66.2 °F - 57.2 °F 73% 29.99 in 10.0 mi Calm Calm - N/A   Clear
9:15 PM 66.2 °F - 55.4 °F 68% 29.99 in 10.0 mi Calm Calm - N/A   Clear
9:35 PM 64.4 °F - 57.2 °F 77% 30.00 in 10.0 mi Calm Calm - N/A   Clear
9:55 PM 64.4 °F - 57.2 °F 77% 30.00 in 10.0 mi Calm Calm - N/A   Clear
10:15 PM 62.6 °F - 57.2 °F 82% 30.00 in 10.0 mi Calm Calm - N/A   Clear
10:35 PM 62.6 °F - 55.4 °F 77% 30.00 in 10.0 mi Calm Calm - N/A   Clear
10:55 PM 62.6 °F - 55.4 °F 77% 30.00 in 10.0 mi Calm Calm - N/A   Clear
11:15 PM 62.6 °F - 55.4 °F 77% 30.01 in 10.0 mi Calm Calm - N/A   Clear
11:35 PM 62.6 °F - 55.4 °F 77% 30.01 in 10.0 mi Calm Calm - N/A   Clear
11:55 PM 62.6 °F - 55.4 °F 77% 30.00 in 10.0 mi Calm Calm - N/A   Clear